{"data":{"norad_id":39078,"intl_designator":"2013-006A","name":"AMAZONAS 3","alt_names":[],"object_type":"PAYLOAD","status":"ACTIVE","operator":null,"country":"SPN","launch_date":"2013-02-07","launch_site_code":"FRGUI","launch_vehicle":null,"mission":null,"orbit_class":"UNKNOWN","rcs_meters":318.7396,"size_class":null,"mass_kg":null,"dimensions":null,"purposes":["comms"],"wikipedia_slug":null,"has_3d_model":false,"image_url":null,"decayed_at":null,"tle_current":{"epoch":"2026-05-25T03:44:42.071136Z","epoch_age_seconds":71770,"freshness":"FRESH","line1":"1 39078U 13006A   26145.15604249 -.00000285  00000+0  00000+0 0  9990","line2":"2 39078   0.0405 140.1963 0001166 297.5854 160.1486  1.00270664 44680","mean_motion":1.00270664,"eccentricity":0.0001166,"inclination_deg":0.0405,"raan_deg":140.1963,"arg_perigee_deg":297.5854,"mean_anomaly_deg":160.1486,"bstar":0,"rev_number":4468,"period_min":1436.1129592201,"perigee_km":35781.992776723,"apogee_km":35791.825665501,"semimajor_km":42165.046221112,"source":"CELESTRAK","updated_at":"2026-05-25T13:38:13.940865Z"}}}